Location: Arrien
(42.8963°N, 1.0429°E)
Time: 09:54:22
(UTC+00:00)

ISS - Pass Details

Date: 19 February 2026
Orbit: 416 x 426 km, 51.6° (Epoch: 10 March)

Event Time Altitude Azimuth Distance (km) Brightness Sun altitude
Exits shadow 06:15:42 - 298° (WNW) 1,692 -1.3 -6.5°
Reaches altitude 10° 06:16:20 10° 305° (NW) 1,495 -1.5 -6.4°
Maximum altitude 06:18:49 19° 353° (N) 1,065 -1.9 -6.0°
Drops below altitude 10° 06:21:19 10° 41° (NE) 1,494 -0.5 -5.5°
Sets 06:23:50 0° 60° (ENE) 2,357 0.9 -5.1°
